Year,Month,Day,Hour,Minute,Value (Times are PST for temperature in C)
2017,05,22,00,00,18.80
2017,05,22,00,01,18.80
2017,05,22,00,02,18.80
2017,05,22,00,03,18.70
2017,05,22,00,04,18.70
2017,05,22,00,05,18.70
2017,05,22,00,06,18.70
2017,05,22,00,07,18.60
2017,05,22,00,08,18.60
2017,05,22,00,09,18.60
2017,05,22,00,10,18.60
2017,05,22,00,11,18.60
2017,05,22,00,12,18.50
2017,05,22,00,13,18.50
2017,05,22,00,14,18.50
2017,05,22,00,15,18.40
2017,05,22,00,16,18.40
2017,05,22,00,17,18.40
2017,05,22,00,18,18.40
2017,05,22,00,19,18.40
2017,05,22,00,20,18.30
2017,05,22,00,21,18.30
2017,05,22,00,22,18.30
2017,05,22,00,23,18.30
2017,05,22,00,24,18.30
2017,05,22,00,25,18.30
2017,05,22,00,26,18.40
2017,05,22,00,27,18.40
2017,05,22,00,28,18.40
2017,05,22,00,29,18.40
2017,05,22,00,30,18.40
2017,05,22,00,31,18.40
2017,05,22,00,32,18.40
2017,05,22,00,33,18.40
2017,05,22,00,34,18.40
2017,05,22,00,35,18.40
2017,05,22,00,36,18.40
2017,05,22,00,37,18.40
2017,05,22,00,38,18.40
2017,05,22,00,39,18.40
2017,05,22,00,40,18.40
2017,05,22,00,41,18.40
2017,05,22,00,42,18.40
2017,05,22,00,43,18.40
2017,05,22,00,44,18.40
2017,05,22,00,45,18.40
2017,05,22,00,46,18.40
2017,05,22,00,47,18.40
2017,05,22,00,48,18.40
2017,05,22,00,49,18.40
2017,05,22,00,50,18.40
2017,05,22,00,51,18.40
2017,05,22,00,52,18.40
2017,05,22,00,53,18.40
2017,05,22,00,54,18.40
2017,05,22,00,55,18.40
2017,05,22,00,56,18.40
2017,05,22,00,57,18.40
2017,05,22,00,58,18.40
2017,05,22,00,59,18.40
2017,05,22,01,00,18.40
2017,05,22,01,01,18.40
2017,05,22,01,02,18.40
2017,05,22,01,03,18.40
2017,05,22,01,04,18.40
2017,05,22,01,05,18.30
2017,05,22,01,06,18.30
2017,05,22,01,07,18.30
2017,05,22,01,08,18.30
2017,05,22,01,09,18.20
2017,05,22,01,10,18.20
2017,05,22,01,11,18.20
2017,05,22,01,12,18.20
2017,05,22,01,13,18.20
2017,05,22,01,14,18.20
2017,05,22,01,15,18.20
2017,05,22,01,16,18.20
2017,05,22,01,17,18.20
2017,05,22,01,18,18.20
2017,05,22,01,19,18.20
2017,05,22,01,20,18.20
2017,05,22,01,21,18.20
2017,05,22,01,22,18.20
2017,05,22,01,23,18.30
2017,05,22,01,24,18.30
2017,05,22,01,25,18.30
2017,05,22,01,26,18.40
2017,05,22,01,27,18.40
2017,05,22,01,28,18.40
2017,05,22,01,29,18.40
2017,05,22,01,30,18.50
2017,05,22,01,31,18.50
2017,05,22,01,32,18.50
2017,05,22,01,33,18.60
2017,05,22,01,34,18.60
2017,05,22,01,35,18.60
2017,05,22,01,36,18.60
2017,05,22,01,37,18.60
2017,05,22,01,38,18.60
2017,05,22,01,39,18.60
2017,05,22,01,40,18.60
2017,05,22,01,41,18.60
2017,05,22,01,42,18.60
2017,05,22,01,43,18.60
2017,05,22,01,44,18.60
2017,05,22,01,45,18.60
2017,05,22,01,46,18.60
2017,05,22,01,47,18.60
2017,05,22,01,48,18.60
2017,05,22,01,49,18.60
2017,05,22,01,50,18.60
2017,05,22,01,51,18.60
2017,05,22,01,52,18.60
2017,05,22,01,53,18.70
2017,05,22,01,54,18.70
2017,05,22,01,55,18.70
2017,05,22,01,56,18.70
2017,05,22,01,57,18.80
2017,05,22,01,58,18.80
2017,05,22,01,59,18.80
2017,05,22,02,00,18.80
2017,05,22,02,01,18.90
2017,05,22,02,02,18.90
2017,05,22,02,03,18.90
2017,05,22,02,04,18.90
2017,05,22,02,05,19.00
2017,05,22,02,06,19.00
2017,05,22,02,07,19.00
2017,05,22,02,08,19.10
2017,05,22,02,09,19.10
2017,05,22,02,10,19.10
2017,05,22,02,11,19.10
2017,05,22,02,12,19.10
2017,05,22,02,13,19.10
2017,05,22,02,14,19.10
2017,05,22,02,15,19.10
2017,05,22,02,16,19.20
2017,05,22,02,17,19.20
2017,05,22,02,18,19.20
2017,05,22,02,19,19.20
2017,05,22,02,20,19.10
2017,05,22,02,21,19.10
2017,05,22,02,22,19.10
2017,05,22,02,23,19.10
2017,05,22,02,24,19.10
2017,05,22,02,25,19.10
2017,05,22,02,26,19.10
2017,05,22,02,27,19.10
2017,05,22,02,28,19.20
2017,05,22,02,29,19.20
2017,05,22,02,30,19.20
2017,05,22,02,31,19.20
2017,05,22,02,32,19.20
2017,05,22,02,33,19.20
2017,05,22,02,34,19.20
2017,05,22,02,35,19.20
2017,05,22,02,36,19.20
2017,05,22,02,37,19.20
2017,05,22,02,38,19.20
2017,05,22,02,39,19.20
2017,05,22,02,40,19.20
2017,05,22,02,41,19.20
2017,05,22,02,42,19.20
2017,05,22,02,43,19.20
2017,05,22,02,44,19.20
2017,05,22,02,45,19.20
2017,05,22,02,46,19.20
2017,05,22,02,47,19.20
2017,05,22,02,48,19.20
2017,05,22,02,49,19.20
2017,05,22,02,50,19.10
2017,05,22,02,51,19.10
2017,05,22,02,52,19.10
2017,05,22,02,53,19.10
2017,05,22,02,54,19.10
2017,05,22,02,55,19.10
2017,05,22,02,56,19.10
2017,05,22,02,57,19.10
2017,05,22,02,58,19.00
2017,05,22,02,59,19.00
2017,05,22,03,00,18.90
2017,05,22,03,01,18.90
2017,05,22,03,02,18.90
2017,05,22,03,03,18.90
2017,05,22,03,04,18.80
2017,05,22,03,05,18.80
2017,05,22,03,06,18.80
2017,05,22,03,07,18.70
2017,05,22,03,08,18.70
2017,05,22,03,09,18.70
2017,05,22,03,10,18.70
2017,05,22,03,11,18.60
2017,05,22,03,12,18.60
2017,05,22,03,13,18.60
2017,05,22,03,14,18.60
2017,05,22,03,15,18.60
2017,05,22,03,16,18.60
2017,05,22,03,17,18.50
2017,05,22,03,18,18.50
2017,05,22,03,19,18.50
2017,05,22,03,20,18.40
2017,05,22,03,21,18.40
2017,05,22,03,22,18.40
2017,05,22,03,23,18.30
2017,05,22,03,24,18.30
2017,05,22,03,25,18.20
2017,05,22,03,26,18.20
2017,05,22,03,27,18.20
2017,05,22,03,28,18.20
2017,05,22,03,29,18.10
2017,05,22,03,30,18.10
2017,05,22,03,31,18.10
2017,05,22,03,32,18.10
2017,05,22,03,33,18.10
2017,05,22,03,34,18.10
2017,05,22,03,35,18.10
2017,05,22,03,36,18.00
2017,05,22,03,37,18.00
2017,05,22,03,38,18.00
2017,05,22,03,39,18.00
2017,05,22,03,40,18.00
2017,05,22,03,41,17.90
2017,05,22,03,42,17.90
2017,05,22,03,43,17.90
2017,05,22,03,44,17.90
2017,05,22,03,45,17.80
2017,05,22,03,46,17.80
2017,05,22,03,47,17.80
2017,05,22,03,48,17.70
2017,05,22,03,49,17.70
2017,05,22,03,50,17.60
2017,05,22,03,51,17.60
2017,05,22,03,52,17.60
2017,05,22,03,53,17.50
2017,05,22,03,54,17.50
2017,05,22,03,55,17.50
2017,05,22,03,56,17.40
2017,05,22,03,57,17.40
2017,05,22,03,58,17.40
2017,05,22,03,59,17.30
2017,05,22,04,00,17.30
2017,05,22,04,01,17.30
2017,05,22,04,02,17.20
2017,05,22,04,03,17.20
2017,05,22,04,04,17.10
2017,05,22,04,05,17.10
2017,05,22,04,06,17.00
2017,05,22,04,07,17.00
2017,05,22,04,08,16.90
2017,05,22,04,09,16.90
2017,05,22,04,10,16.80
2017,05,22,04,11,16.80
2017,05,22,04,12,16.80
2017,05,22,04,13,16.70
2017,05,22,04,14,16.70
2017,05,22,04,15,16.60
2017,05,22,04,16,16.60
2017,05,22,04,17,16.60
2017,05,22,04,18,16.60
2017,05,22,04,19,16.50
2017,05,22,04,20,16.50
2017,05,22,04,21,16.50
2017,05,22,04,22,16.40
2017,05,22,04,23,16.40
2017,05,22,04,24,16.40
2017,05,22,04,25,16.40
2017,05,22,04,26,16.30
2017,05,22,04,27,16.30
2017,05,22,04,28,16.30
2017,05,22,04,29,16.20
2017,05,22,04,30,16.20
2017,05,22,04,31,16.20
2017,05,22,04,32,16.20
2017,05,22,04,33,16.20
2017,05,22,04,34,16.20
2017,05,22,04,35,16.20
2017,05,22,04,36,16.20
2017,05,22,04,37,16.20
2017,05,22,04,38,16.20
2017,05,22,04,39,16.10
2017,05,22,04,40,16.10
2017,05,22,04,41,16.10
2017,05,22,04,42,16.10
2017,05,22,04,43,16.10
2017,05,22,04,44,16.10
2017,05,22,04,45,16.10
2017,05,22,04,46,16.10
2017,05,22,04,47,16.10
2017,05,22,04,48,16.10
2017,05,22,04,49,16.10
2017,05,22,04,50,16.10
2017,05,22,04,51,16.10
2017,05,22,04,52,16.10
2017,05,22,04,53,16.00
2017,05,22,04,54,16.00
2017,05,22,04,55,16.00
2017,05,22,04,56,15.90
2017,05,22,04,57,15.90
2017,05,22,04,58,15.90
2017,05,22,04,59,15.90
2017,05,22,05,00,15.80
2017,05,22,05,01,15.80
2017,05,22,05,02,15.90
2017,05,22,05,03,15.90
2017,05,22,05,04,15.90
2017,05,22,05,05,15.80
2017,05,22,05,06,15.80
2017,05,22,05,07,15.80
2017,05,22,05,08,15.80
2017,05,22,05,09,15.80
2017,05,22,05,10,15.80
2017,05,22,05,11,15.80
2017,05,22,05,12,15.80
2017,05,22,05,13,15.80
2017,05,22,05,14,15.80
2017,05,22,05,15,15.80
2017,05,22,05,16,15.80
2017,05,22,05,17,15.80
2017,05,22,05,18,15.80
2017,05,22,05,19,15.80
2017,05,22,05,20,15.80
2017,05,22,05,21,15.80
2017,05,22,05,22,15.80
2017,05,22,05,23,15.80
2017,05,22,05,24,15.80
2017,05,22,05,25,15.80
2017,05,22,05,26,15.80
2017,05,22,05,27,15.80
2017,05,22,05,28,15.80
2017,05,22,05,29,15.80
2017,05,22,05,30,15.80
2017,05,22,05,31,15.80
2017,05,22,05,32,15.80
2017,05,22,05,33,15.80
2017,05,22,05,34,15.80
2017,05,22,05,35,15.80
2017,05,22,05,36,15.80
2017,05,22,05,37,15.80
2017,05,22,05,38,15.70
2017,05,22,05,39,15.70
2017,05,22,05,40,15.70
2017,05,22,05,41,15.60
2017,05,22,05,42,15.60
2017,05,22,05,43,15.60
2017,05,22,05,44,15.60
2017,05,22,05,45,15.60
2017,05,22,05,46,15.50
2017,05,22,05,47,15.50
2017,05,22,05,48,15.50
2017,05,22,05,49,15.40
2017,05,22,05,50,15.40
2017,05,22,05,51,15.40
2017,05,22,05,52,15.40
2017,05,22,05,53,15.30
2017,05,22,05,54,15.30
2017,05,22,05,55,15.30
2017,05,22,05,56,15.30
2017,05,22,05,57,15.30
2017,05,22,05,58,15.30
2017,05,22,05,59,15.30
2017,05,22,06,00,15.30
2017,05,22,06,01,15.30
2017,05,22,06,02,15.30
2017,05,22,06,03,15.30
2017,05,22,06,04,15.30
2017,05,22,06,05,15.30
2017,05,22,06,06,15.20
2017,05,22,06,07,15.20
2017,05,22,06,08,15.20
2017,05,22,06,09,15.20
2017,05,22,06,10,15.20
2017,05,22,06,11,15.20
2017,05,22,06,12,15.20
2017,05,22,06,13,15.20
2017,05,22,06,14,15.20
2017,05,22,06,15,15.20
2017,05,22,06,16,15.20
2017,05,22,06,17,15.20
2017,05,22,06,18,15.20
2017,05,22,06,19,15.20
2017,05,22,06,20,15.20
2017,05,22,06,21,15.20
2017,05,22,06,22,15.30
2017,05,22,06,23,15.30
2017,05,22,06,24,15.30
2017,05,22,06,25,15.30
2017,05,22,06,26,15.40
2017,05,22,06,27,15.40
2017,05,22,06,28,15.40
2017,05,22,06,29,15.40
2017,05,22,06,30,15.50
2017,05,22,06,31,15.50
2017,05,22,06,32,15.50
2017,05,22,06,33,15.50
2017,05,22,06,34,15.50
2017,05,22,06,35,15.50
2017,05,22,06,36,15.50
2017,05,22,06,37,15.60
2017,05,22,06,38,15.60
2017,05,22,06,39,15.60
2017,05,22,06,40,15.50
2017,05,22,06,41,15.50
2017,05,22,06,42,15.50
2017,05,22,06,43,15.50
2017,05,22,06,44,15.50
2017,05,22,06,45,15.50
2017,05,22,06,46,15.50
2017,05,22,06,47,15.50
2017,05,22,06,48,15.50
2017,05,22,06,49,15.50
2017,05,22,06,50,15.50
2017,05,22,06,51,15.50
2017,05,22,06,52,15.50
2017,05,22,06,53,15.50
2017,05,22,06,54,15.50
2017,05,22,06,55,15.50
2017,05,22,06,56,15.50
2017,05,22,06,57,15.50
2017,05,22,06,58,15.50
2017,05,22,06,59,15.60
2017,05,22,07,00,15.50
2017,05,22,07,01,15.50
2017,05,22,07,02,15.50
2017,05,22,07,03,15.50
2017,05,22,07,04,15.50
2017,05,22,07,05,15.50
2017,05,22,07,06,15.50
2017,05,22,07,07,15.50
2017,05,22,07,08,15.50
2017,05,22,07,09,15.40
2017,05,22,07,10,15.40
2017,05,22,07,11,15.40
2017,05,22,07,12,15.50
2017,05,22,07,13,15.50
2017,05,22,07,14,15.50
2017,05,22,07,15,15.60
2017,05,22,07,16,15.60
2017,05,22,07,17,15.60
2017,05,22,07,18,15.60
2017,05,22,07,19,15.70
2017,05,22,07,20,15.70
2017,05,22,07,21,15.70
2017,05,22,07,22,15.70
2017,05,22,07,23,15.70
2017,05,22,07,24,15.70
2017,05,22,07,25,15.70
2017,05,22,07,26,15.80
2017,05,22,07,27,15.80
2017,05,22,07,28,15.80
2017,05,22,07,29,15.80
2017,05,22,07,30,15.80
2017,05,22,07,31,15.80
2017,05,22,07,32,15.90
2017,05,22,07,33,15.90
2017,05,22,07,34,15.90
2017,05,22,07,35,15.90
2017,05,22,07,36,15.90
2017,05,22,07,37,15.90
2017,05,22,07,38,15.90
2017,05,22,07,39,15.90
2017,05,22,07,40,15.90
2017,05,22,07,41,15.90
2017,05,22,07,42,15.90
2017,05,22,07,43,16.00
2017,05,22,07,44,16.00
2017,05,22,07,45,16.00
2017,05,22,07,46,16.10
2017,05,22,07,47,16.10
2017,05,22,07,48,16.10
2017,05,22,07,49,16.20
2017,05,22,07,50,16.20
2017,05,22,07,51,16.20
2017,05,22,07,52,16.30
2017,05,22,07,53,16.30
2017,05,22,07,54,16.40
2017,05,22,07,55,16.40
2017,05,22,07,56,16.40
2017,05,22,07,57,16.50
2017,05,22,07,58,16.50
2017,05,22,07,59,16.60
2017,05,22,08,00,16.60
2017,05,22,08,01,16.60
2017,05,22,08,02,16.70
2017,05,22,08,03,16.70
2017,05,22,08,04,16.70
2017,05,22,08,05,16.80
2017,05,22,08,06,16.80
2017,05,22,08,07,16.80
2017,05,22,08,08,16.90
2017,05,22,08,09,16.90
2017,05,22,08,10,16.90
2017,05,22,08,11,17.00
2017,05,22,08,12,17.00
2017,05,22,08,13,17.10
2017,05,22,08,14,17.10
2017,05,22,08,15,17.10
2017,05,22,08,16,17.10
2017,05,22,08,17,17.10
2017,05,22,08,18,17.20
2017,05,22,08,19,17.20
2017,05,22,08,20,17.20
2017,05,22,08,21,17.20
2017,05,22,08,22,17.30
2017,05,22,08,23,17.30
2017,05,22,08,24,17.30
2017,05,22,08,25,17.30
2017,05,22,08,26,17.30
2017,05,22,08,27,17.30
2017,05,22,08,28,17.30
2017,05,22,08,29,17.40
2017,05,22,08,30,17.40
2017,05,22,08,31,17.40
2017,05,22,08,32,17.40
2017,05,22,08,33,17.40
2017,05,22,08,34,17.50
2017,05,22,08,35,17.50
2017,05,22,08,36,17.50
2017,05,22,08,37,17.60
2017,05,22,08,38,17.60
2017,05,22,08,39,17.60
2017,05,22,08,40,17.60
2017,05,22,08,41,17.60
2017,05,22,08,42,17.70
2017,05,22,08,43,17.70
2017,05,22,08,44,17.80
2017,05,22,08,45,17.80
2017,05,22,08,46,17.80
2017,05,22,08,47,17.80
2017,05,22,08,48,17.80
2017,05,22,08,49,17.80
2017,05,22,08,50,17.90
2017,05,22,08,51,17.90
2017,05,22,08,52,17.90
2017,05,22,08,53,18.00
2017,05,22,08,54,18.00
2017,05,22,08,55,18.10
2017,05,22,08,56,18.10
2017,05,22,08,57,18.20
2017,05,22,08,58,18.20
2017,05,22,08,59,18.20
2017,05,22,09,00,18.30
2017,05,22,09,01,18.30
2017,05,22,09,02,18.40
2017,05,22,09,03,18.40
2017,05,22,09,04,18.40
2017,05,22,09,05,18.50
2017,05,22,09,06,18.50
2017,05,22,09,07,18.60
2017,05,22,09,08,18.60
2017,05,22,09,09,18.70
2017,05,22,09,10,18.80
2017,05,22,09,11,18.80
2017,05,22,09,12,18.90
2017,05,22,09,13,18.90
2017,05,22,09,14,19.00
2017,05,22,09,15,19.10
2017,05,22,09,16,19.10
2017,05,22,09,17,19.20
2017,05,22,09,18,19.20
2017,05,22,09,19,19.30
2017,05,22,09,20,19.30
2017,05,22,09,21,19.30
2017,05,22,09,22,19.30
2017,05,22,09,23,19.30
2017,05,22,09,24,19.30
2017,05,22,09,25,19.30
2017,05,22,09,26,19.40
2017,05,22,09,27,19.40
2017,05,22,09,28,19.40
2017,05,22,09,29,19.40
2017,05,22,09,30,19.50
2017,05,22,09,31,19.50
2017,05,22,09,32,19.50
2017,05,22,09,33,19.40
2017,05,22,09,34,19.40
2017,05,22,09,35,19.40
2017,05,22,09,36,19.30
2017,05,22,09,37,19.30
2017,05,22,09,38,19.30
2017,05,22,09,39,19.30
2017,05,22,09,40,19.30
2017,05,22,09,41,19.30
2017,05,22,09,42,19.30
2017,05,22,09,43,19.30
2017,05,22,09,44,19.40
2017,05,22,09,45,19.40
2017,05,22,09,46,19.40
2017,05,22,09,47,19.50
2017,05,22,09,48,19.50
2017,05,22,09,49,19.50
2017,05,22,09,50,19.60
2017,05,22,09,51,19.60
2017,05,22,09,52,19.60
2017,05,22,09,53,19.60
2017,05,22,09,54,19.60
2017,05,22,09,55,19.60
2017,05,22,09,56,19.70
2017,05,22,09,57,19.70
2017,05,22,09,58,19.70
2017,05,22,09,59,19.80
2017,05,22,10,00,19.80
2017,05,22,10,01,19.80
2017,05,22,10,02,19.80
2017,05,22,10,03,19.90
2017,05,22,10,04,19.90
2017,05,22,10,05,20.00
2017,05,22,10,06,20.00
2017,05,22,10,07,20.00
2017,05,22,10,08,20.00
2017,05,22,10,09,20.10
2017,05,22,10,10,20.10
2017,05,22,10,11,20.10
2017,05,22,10,12,20.10
2017,05,22,10,13,20.10
2017,05,22,10,14,20.20
2017,05,22,10,15,20.20
2017,05,22,10,16,20.20
2017,05,22,10,17,20.20
2017,05,22,10,18,20.20
2017,05,22,10,19,20.30
2017,05,22,10,20,20.30
2017,05,22,10,21,20.30
2017,05,22,10,22,20.40
2017,05,22,10,23,20.40
2017,05,22,10,24,20.40
2017,05,22,10,25,20.50
2017,05,22,10,26,20.50
2017,05,22,10,27,20.50
2017,05,22,10,28,20.50
2017,05,22,10,29,20.50
2017,05,22,10,30,20.50
2017,05,22,10,31,20.60
2017,05,22,10,32,20.60
2017,05,22,10,33,20.70
2017,05,22,10,34,20.70
2017,05,22,10,35,20.70
2017,05,22,10,36,20.70
2017,05,22,10,37,20.70
2017,05,22,10,38,20.80
2017,05,22,10,39,20.80
2017,05,22,10,40,20.80
2017,05,22,10,41,20.90
2017,05,22,10,42,20.90
2017,05,22,10,43,20.90
2017,05,22,10,44,21.00
2017,05,22,10,45,21.00
2017,05,22,10,46,21.00
2017,05,22,10,47,21.10
2017,05,22,10,48,21.10
2017,05,22,10,49,21.10
2017,05,22,10,50,21.10
2017,05,22,10,51,21.10
2017,05,22,10,52,21.10
2017,05,22,10,53,21.20
2017,05,22,10,54,21.20
2017,05,22,10,55,21.20
2017,05,22,10,56,21.20
2017,05,22,10,57,21.20
2017,05,22,10,58,21.20
2017,05,22,10,59,21.20
2017,05,22,11,00,21.10
2017,05,22,11,01,21.10
2017,05,22,11,02,21.10
2017,05,22,11,03,21.10
2017,05,22,11,04,21.10
2017,05,22,11,05,21.10
2017,05,22,11,06,21.10
2017,05,22,11,07,21.10
2017,05,22,11,08,21.20
2017,05,22,11,09,21.20
2017,05,22,11,10,21.20
2017,05,22,11,11,21.20
2017,05,22,11,12,21.20
2017,05,22,11,13,21.20
2017,05,22,11,14,21.10
2017,05,22,11,15,21.10
2017,05,22,11,16,21.10
2017,05,22,11,17,21.10
2017,05,22,11,18,21.10
2017,05,22,11,19,21.00
2017,05,22,11,20,21.00
2017,05,22,11,21,20.90
2017,05,22,11,22,20.90
2017,05,22,11,23,20.90
2017,05,22,11,24,20.90
2017,05,22,11,25,20.90
2017,05,22,11,26,20.90
2017,05,22,11,27,20.90
2017,05,22,11,28,20.90
2017,05,22,11,29,20.90
2017,05,22,11,30,20.90
2017,05,22,11,31,21.00
2017,05,22,11,32,21.00
2017,05,22,11,33,21.10
2017,05,22,11,34,21.10
2017,05,22,11,35,21.20
2017,05,22,11,36,21.20
2017,05,22,11,37,21.20
2017,05,22,11,38,21.20
2017,05,22,11,39,21.20
2017,05,22,11,40,21.20
2017,05,22,11,41,21.20
2017,05,22,11,42,21.20
2017,05,22,11,43,21.10
2017,05,22,11,44,21.10
2017,05,22,11,45,21.20
2017,05,22,11,46,21.20
2017,05,22,11,47,21.30
2017,05,22,11,48,21.40
2017,05,22,11,49,21.50
2017,05,22,11,50,21.60
2017,05,22,11,51,21.70
2017,05,22,11,52,21.80
2017,05,22,11,53,21.90
2017,05,22,11,54,21.90
2017,05,22,11,55,21.90
2017,05,22,11,56,22.00
2017,05,22,11,57,22.00
2017,05,22,11,58,22.10
2017,05,22,11,59,22.20
2017,05,22,12,00,22.30
2017,05,22,12,01,22.40
2017,05,22,12,02,22.50
2017,05,22,12,03,22.60
2017,05,22,12,04,22.70
2017,05,22,12,05,22.80
2017,05,22,12,06,22.80
2017,05,22,12,07,22.80
2017,05,22,12,08,22.70
2017,05,22,12,09,22.70
2017,05,22,12,10,22.70
2017,05,22,12,11,22.70
2017,05,22,12,12,22.70
2017,05,22,12,13,22.70
2017,05,22,12,14,22.70
2017,05,22,12,15,22.70
2017,05,22,12,16,22.60
2017,05,22,12,17,22.60
2017,05,22,12,18,22.60
2017,05,22,12,19,22.60
2017,05,22,12,20,22.60
2017,05,22,12,21,22.60
2017,05,22,12,22,22.70
2017,05,22,12,23,22.60
2017,05,22,12,24,22.60
2017,05,22,12,25,22.60
2017,05,22,12,26,22.60
2017,05,22,12,27,22.60
2017,05,22,12,28,22.60
2017,05,22,12,29,22.70
2017,05,22,12,30,22.70
2017,05,22,12,31,22.80
2017,05,22,12,32,22.90
2017,05,22,12,33,22.90
2017,05,22,12,34,22.90
2017,05,22,12,35,23.00
2017,05,22,12,36,23.00
2017,05,22,12,37,23.00
2017,05,22,12,38,23.00
2017,05,22,12,39,23.00
2017,05,22,12,40,23.00
2017,05,22,12,41,22.90
2017,05,22,12,42,22.80
2017,05,22,12,43,22.80
2017,05,22,12,44,22.70
2017,05,22,12,45,22.70
2017,05,22,12,46,22.70
2017,05,22,12,47,22.60
2017,05,22,12,48,22.70
2017,05,22,12,49,22.70
2017,05,22,12,50,22.70
2017,05,22,12,51,22.70
2017,05,22,12,52,22.70
2017,05,22,12,53,22.80
2017,05,22,12,54,22.80
2017,05,22,12,55,22.90
2017,05,22,12,56,22.90
2017,05,22,12,57,23.00
2017,05,22,12,58,23.10
2017,05,22,12,59,23.10
2017,05,22,13,00,23.20
2017,05,22,13,01,23.20
2017,05,22,13,02,23.20
2017,05,22,13,03,23.20
2017,05,22,13,04,23.20
2017,05,22,13,05,23.30
2017,05,22,13,06,23.30
2017,05,22,13,07,23.40
2017,05,22,13,08,23.40
2017,05,22,13,09,23.50
2017,05,22,13,10,23.60
2017,05,22,13,11,23.60
2017,05,22,13,12,23.60
2017,05,22,13,13,23.70
2017,05,22,13,14,23.70
2017,05,22,13,15,23.70
2017,05,22,13,16,23.70
2017,05,22,13,17,23.80
2017,05,22,13,18,23.80
2017,05,22,13,19,23.90
2017,05,22,13,20,23.90
2017,05,22,13,21,23.90
2017,05,22,13,22,23.90
2017,05,22,13,23,23.90
2017,05,22,13,24,23.90
2017,05,22,13,25,23.90
2017,05,22,13,26,23.90
2017,05,22,13,27,23.90
2017,05,22,13,28,24.00
2017,05,22,13,29,24.00
2017,05,22,13,30,24.00
2017,05,22,13,31,24.00
2017,05,22,13,32,24.00
2017,05,22,13,33,24.10
2017,05,22,13,34,24.10
2017,05,22,13,35,24.10
2017,05,22,13,36,24.10
2017,05,22,13,37,24.10
2017,05,22,13,38,24.20
2017,05,22,13,39,24.20
2017,05,22,13,40,24.20
2017,05,22,13,41,24.20
2017,05,22,13,42,24.20
2017,05,22,13,43,24.20
2017,05,22,13,44,24.20
2017,05,22,13,45,24.10
2017,05,22,13,46,24.10
2017,05,22,13,47,24.10
2017,05,22,13,48,24.20
2017,05,22,13,49,24.20
2017,05,22,13,50,24.20
2017,05,22,13,51,24.20
2017,05,22,13,52,24.30
2017,05,22,13,53,24.30
2017,05,22,13,54,24.30
2017,05,22,13,55,24.30
2017,05,22,13,56,24.30
2017,05,22,13,57,24.30
2017,05,22,13,58,24.30
2017,05,22,13,59,24.30
2017,05,22,14,00,24.30
2017,05,22,14,01,24.30
2017,05,22,14,02,24.30
2017,05,22,14,03,24.30
2017,05,22,14,04,24.30
2017,05,22,14,05,24.20
2017,05,22,14,06,24.20
2017,05,22,14,07,24.20
2017,05,22,14,08,24.30
2017,05,22,14,09,24.30
2017,05,22,14,10,24.40
2017,05,22,14,11,24.40
2017,05,22,14,12,24.40
2017,05,22,14,13,24.40
2017,05,22,14,14,24.40
2017,05,22,14,15,24.50
2017,05,22,14,16,24.50
2017,05,22,14,17,24.60
2017,05,22,14,18,24.60
2017,05,22,14,19,24.60
2017,05,22,14,20,24.60
2017,05,22,14,21,24.60
2017,05,22,14,22,24.60
2017,05,22,14,23,24.60
2017,05,22,14,24,24.70
2017,05,22,14,25,24.70
2017,05,22,14,26,24.70
2017,05,22,14,27,24.70
2017,05,22,14,28,24.80
2017,05,22,14,29,24.80
2017,05,22,14,30,24.90
2017,05,22,14,31,24.90
2017,05,22,14,32,25.00
2017,05,22,14,33,25.00
2017,05,22,14,34,25.00
2017,05,22,14,35,25.00
2017,05,22,14,36,25.00
2017,05,22,14,37,25.10
2017,05,22,14,38,25.10
2017,05,22,14,39,25.10
2017,05,22,14,40,25.10
2017,05,22,14,41,25.20
2017,05,22,14,42,25.20
2017,05,22,14,43,25.30
2017,05,22,14,44,25.30
2017,05,22,14,45,25.30
2017,05,22,14,46,25.30
2017,05,22,14,47,25.30
2017,05,22,14,48,25.30
2017,05,22,14,49,25.40
2017,05,22,14,50,25.40
2017,05,22,14,51,25.40
2017,05,22,14,52,25.40
2017,05,22,14,53,25.50
2017,05,22,14,54,25.50
2017,05,22,14,55,25.40
2017,05,22,14,56,25.40
2017,05,22,14,57,25.50
2017,05,22,14,58,25.50
2017,05,22,14,59,25.50
2017,05,22,15,00,25.50
2017,05,22,15,01,25.40
2017,05,22,15,02,25.40
2017,05,22,15,03,25.40
2017,05,22,15,04,25.40
2017,05,22,15,05,25.40
2017,05,22,15,06,25.40
2017,05,22,15,07,25.50
2017,05,22,15,08,25.50
2017,05,22,15,09,25.60
2017,05,22,15,10,25.60
2017,05,22,15,11,25.70
2017,05,22,15,12,25.70
2017,05,22,15,13,25.70
2017,05,22,15,14,25.70
2017,05,22,15,15,25.70
2017,05,22,15,16,25.70
2017,05,22,15,17,25.60
2017,05,22,15,18,25.60
2017,05,22,15,19,25.70
2017,05,22,15,20,25.70
2017,05,22,15,21,25.70
2017,05,22,15,22,25.70
2017,05,22,15,23,25.70
2017,05,22,15,24,25.70
2017,05,22,15,25,25.70
2017,05,22,15,26,25.70
2017,05,22,15,27,25.70
2017,05,22,15,28,25.70
2017,05,22,15,29,25.70
2017,05,22,15,30,25.70
2017,05,22,15,31,25.70
2017,05,22,15,32,25.80
2017,05,22,15,33,25.80
2017,05,22,15,34,25.80
2017,05,22,15,35,25.90
2017,05,22,15,36,26.00
2017,05,22,15,37,26.00
2017,05,22,15,38,26.10
2017,05,22,15,39,26.10
2017,05,22,15,40,26.20
2017,05,22,15,41,26.20
2017,05,22,15,42,26.10
2017,05,22,15,43,26.10
2017,05,22,15,44,26.10
2017,05,22,15,45,26.00
2017,05,22,15,46,26.00
2017,05,22,15,47,25.90
2017,05,22,15,48,25.90
2017,05,22,15,49,25.80
2017,05,22,15,50,25.80
2017,05,22,15,51,25.80
2017,05,22,15,52,25.80
2017,05,22,15,53,25.80
2017,05,22,15,54,25.80
2017,05,22,15,55,25.90
2017,05,22,15,56,26.00
2017,05,22,15,57,26.00
2017,05,22,15,58,26.10
2017,05,22,15,59,26.10
2017,05,22,16,00,26.20
2017,05,22,16,01,26.30
2017,05,22,16,02,26.30
2017,05,22,16,03,26.30
2017,05,22,16,04,26.20
2017,05,22,16,05,26.20
2017,05,22,16,06,26.20
2017,05,22,16,07,26.10
2017,05,22,16,08,26.10
2017,05,22,16,09,26.10
2017,05,22,16,10,26.10
2017,05,22,16,11,26.00
2017,05,22,16,12,26.00
2017,05,22,16,13,26.00
2017,05,22,16,14,26.00
2017,05,22,16,15,26.00
2017,05,22,16,16,26.10
2017,05,22,16,17,26.10
2017,05,22,16,18,26.10
2017,05,22,16,19,26.10
2017,05,22,16,20,26.10
2017,05,22,16,21,26.10
2017,05,22,16,22,26.10
2017,05,22,16,23,26.10
2017,05,22,16,24,26.10
2017,05,22,16,25,26.10
2017,05,22,16,26,26.00
2017,05,22,16,27,25.90
2017,05,22,16,28,25.80
2017,05,22,16,29,25.80
2017,05,22,16,30,25.80
2017,05,22,16,31,25.80
2017,05,22,16,32,25.80
2017,05,22,16,33,25.80
2017,05,22,16,34,25.90
2017,05,22,16,35,25.90
2017,05,22,16,36,25.90
2017,05,22,16,37,25.90
2017,05,22,16,38,25.90
2017,05,22,16,39,25.90
2017,05,22,16,40,26.00
2017,05,22,16,41,26.00
2017,05,22,16,42,26.00
2017,05,22,16,43,26.10
2017,05,22,16,44,26.10
2017,05,22,16,45,26.20
2017,05,22,16,46,26.20
2017,05,22,16,47,26.30
2017,05,22,16,48,26.30
2017,05,22,16,49,26.30
2017,05,22,16,50,26.30
2017,05,22,16,51,26.30
2017,05,22,16,52,26.30
2017,05,22,16,53,26.30
2017,05,22,16,54,26.30
2017,05,22,16,55,26.30
2017,05,22,16,56,26.30
2017,05,22,16,57,26.30
2017,05,22,16,58,26.30
2017,05,22,16,59,26.30
2017,05,22,17,00,26.30
2017,05,22,17,01,26.30
2017,05,22,17,02,26.30
2017,05,22,17,03,26.40
2017,05,22,17,04,26.40
2017,05,22,17,05,26.50
2017,05,22,17,06,26.50
2017,05,22,17,07,26.60
2017,05,22,17,08,26.60
2017,05,22,17,09,26.60
2017,05,22,17,10,26.60
2017,05,22,17,11,26.60
2017,05,22,17,12,26.70
2017,05,22,17,13,26.70
2017,05,22,17,14,26.70
2017,05,22,17,15,26.70
2017,05,22,17,16,26.80
2017,05,22,17,17,26.80
2017,05,22,17,18,26.80
2017,05,22,17,19,26.80